Lapse_Rate
5.6 5.5 6.2 6.5 5.9 5.8 5.7 5.7 5.8 6.2 6.5 6.3 6.4 6.4 6.6 6.9 6.9 7.1 7.1 7.1 7.4 7.5 7.9 8.2 8.0 8.0 8.0 8.1 8.1 8.2 8.2 7.9 7.9 8.0 7.9 7.6 7.3 7.6 7.5 7.6 7.6 7.7 6.7 6.4
5.6 5.8 6.6 5.9 5.7 5.7 5.7 5.7 6.0 6.3 6.7 6.6 6.6 6.6 6.6 6.6 6.6 6.7 6.9 7.1 7.4 7.7 7.7 7.6 8.0 8.2 8.1 8.1 8.3 8.3 8.4 8.6 8.5 8.4 8.0 7.7 7.4 7.0 7.3 7.4 7.3 7.3 7.3 7.0
5.6 6.6 6.6 6.0 6.1 5.9 6.0 6.0 6.2 6.2 6.5 6.5 6.4 6.2 6.4 6.6 6.6 6.8 7.1 7.2 7.2 7.3 7.3 7.7 7.6 7.5 7.7 7.8 8.2 8.4 8.5 8.7 8.7 8.5 8.2 7.9 7.5 7.3 7.1 7.2 7.4 7.6 7.6 7.4
5.9 6.6 6.3 6.2 6.3 6.4 6.2 6.7 6.5 6.4 6.4 6.0 6.5 5.5 6.3 6.5 6.7 7.1 7.5 7.5 7.2 6.8 6.9 7.1 7.5 7.7 7.7 7.8 8.0 8.0 8.1 8.3 8.5 8.5 8.5 8.5 8.0 7.4 7.2 7.2 7.2 7.3 7.5 7.1
6.7 6.8 6.6 6.6 7.0 7.0 6.7 6.7 6.5 6.5 6.3 6.2 6.4 6.1 5.8 6.4 6.5 7.2 7.5 7.5 7.4 7.3 7.1 7.1 7.1 7.5 7.7 7.7 7.8 7.9 7.9 7.9 7.9 8.1 8.3 8.5 8.4 8.1 7.8 7.7 7.4 7.2 7.2 7.3
6.5 6.6 6.6 6.9 7.0 6.8 6.8 6.6 6.6 6.6 6.6 5.1 6.4 6.8 6.2 6.8 6.9 6.9 7.2 7.5 7.3 7.2 6.9 7.0 7.5 7.6 7.6 7.8 7.9 8.0 7.9 8.0 8.1 8.2 8.4 8.6 8.6 8.3 8.3 8.3 7.9 7.2 6.9 6.9
7.0 7.0 7.2 7.2 7.1 7.4 7.1 7.0 5.9 5.6 5.8 5.9 7.1 6.7 6.5 6.7 7.0 7.1 6.9 7.3 7.8 7.8 7.5 7.3 7.5 7.8 8.2 8.3 8.3 8.4 8.4 8.1 8.1 8.7 8.8 8.9 8.9 8.8 8.6 8.9 8.4 7.7 7.3 7.0
6.3 6.2 7.0 7.1 7.2 7.1 7.1 7.4 7.0 5.5 5.1 5.9 6.6 5.8 6.5 6.8 6.8 6.9 7.0 6.9 7.2 7.6 7.8 7.8 7.8 7.8 8.1 8.3 8.4 8.4 8.4 8.2 8.2 8.8 9.2 9.1 9.1 9.0 8.8 8.7 8.2 7.7 7.3 7.2
6.2 5.9 6.4 6.8 7.1 7.2 7.0 7.0 7.3 7.0 6.6 5.4 6.1 6.2 6.2 6.5 6.6 6.6 6.8 7.0 7.3 7.5 8.0 7.9 8.1 8.1 8.0 7.9 8.2 8.4 8.3 8.5 8.7 8.6 8.4 8.4 8.5 8.5 8.5 8.3 8.0 7.6 7.4 7.3
6.3 5.8 5.8 6.8 7.3 7.2 6.9 7.2 7.2 6.9 5.5 4.9 5.1 5.5 6.0 6.6 6.8 7.2 7.3 7.2 7.3 7.5 7.7 7.9 8.0 7.5 7.4 7.7 8.0 8.3 8.3 8.3 8.3 8.2 8.2 8.0 8.0 8.3 8.2 7.9 7.6 7.2 7.0 7.1
6.1 5.5 5.4 5.8 6.3 6.7 7.0 6.5 6.5 6.6 6.4 5.9 6.1 5.7 6.5 6.6 6.7 6.6 6.7 6.9 7.0 7.3 7.6 7.6 8.0 7.7 7.6 7.7 7.6 8.1 8.0 7.8 7.8 7.9 7.9 7.9 7.9 8.0 7.8 7.6 7.1 6.6 6.6 6.6
5.4 5.0 4.4 5.4 6.2 5.9 5.8 6.0 5.7 5.7 5.6 5.7 5.9 5.3 6.3 6.7 6.8 6.6 6.5 6.8 6.9 7.3 7.9 8.1 8.3 7.6 7.4 7.6 7.4 7.5 8.0 7.8 7.5 7.6 7.4 7.6 7.8 7.7 7.6 7.4 7.3 7.0 6.5 6.3
5.0 4.8 4.7 5.2 5.4 5.3 5.1 5.2 5.4 5.7 5.8 5.6 5.5 5.3 6.3 6.8 6.7 6.8 6.4 6.6 6.9 6.8 7.2 7.9 8.1 7.9 7.8 7.6 7.5 7.3 7.5 7.7 7.5 7.0 6.8 7.0 7.3 7.7 7.8 7.7 7.5 7.1 6.9 6.5
4.5 4.7 4.9 5.3 5.6 5.2 5.0 5.1 5.6 5.8 5.7 5.8 5.7 5.7 6.3 6.2 6.3 6.8 6.8 6.6 6.6 6.8 7.1 7.5 7.7 7.7 7.7 7.5 7.6 7.4 7.5 7.7 7.7 7.5 7.3 7.3 7.5 7.8 7.8 7.6 7.6 7.6 7.1 6.7
4.9 4.6 4.6 4.7 4.8 4.6 4.7 5.4 5.8 5.7 5.8 5.6 6.3 6.0 6.3 6.3 6.7 6.5 6.3 6.4 6.5 6.6 6.8 7.0 7.5 7.1 6.9 6.6 7.0 7.3 7.8 7.9 7.6 7.4 7.3 7.2 7.4 7.6 7.7 7.6 7.6 7.5 7.4 7.1
4.6 4.6 4.2 4.3 5.0 5.1 5.0 5.7 5.7 6.1 6.5 6.4 6.7 6.7 6.7 6.7 6.4 6.3 6.3 6.3 6.3 6.5 6.6 6.6 6.8 6.8 6.6 6.9 6.8 6.9 7.5 7.9 7.9 7.4 7.2 7.0 7.1 7.2 7.5 7.7 7.6 7.6 7.4 7.3
4.4 4.4 4.4 4.9 5.4 5.6 5.7 6.4 6.4 6.6 6.8 6.9 6.6 6.8 6.8 6.7 6.8 6.6 6.5 6.5 6.3 6.4 6.6 6.7 6.6 6.8 7.0 7.0 7.0 7.2 7.3 7.3 7.3 7.4 7.4 7.3 7.4 7.3 7.3 7.2 7.4 7.5 7.4 7.5
4.8 4.6 4.7 5.1 5.6 5.5 6.4 6.5 6.7 6.8 6.7 6.7 6.8 6.8 6.4 6.3 6.7 6.9 6.7 6.4 6.6 6.8 6.9 6.9 6.9 6.9 6.9 6.9 6.9 7.0 7.2 7.5 7.6 7.5 7.3 7.3 7.3 7.2 7.2 7.3 7.4 7.5 7.2 7.1
5.9 5.1 5.1 5.6 6.1 6.6 6.7 6.7 6.5 6.6 6.8 7.0 7.2 6.7 6.5 6.1 5.9 6.7 6.5 6.3 6.5 6.8 6.8 6.8 6.9 7.0 7.0 7.0 7.2 7.2 7.4 7.2 7.1 6.9 7.0 7.1 7.0 6.9 6.8 6.9 6.8 7.1 6.9 6.7
6.1 5.5 5.7 5.9 6.3 5.9 7.0 6.8 6.6 6.4 6.3 7.0 6.5 6.0 5.8 5.8 5.5 6.0 6.2 6.2 6.2 6.2 6.2 6.2 6.4 6.5 7.0 7.2 7.3 7.3 7.4 7.4 7.1 7.1 7.1 7.2 7.3 7.2 7.3 7.1 6.9 6.9 6.9 7.0
6.4 6.1 6.0 6.1 6.2 6.8 7.0 6.7 6.5 6.2 6.3 6.0 5.8 6.0 5.6 5.4 5.5 5.2 5.2 5.5 5.5 5.3 5.5 5.4 5.3 5.7 6.0 6.2 6.4 6.6 6.9 7.1 7.2 7.3 7.1 6.9 6.9 6.9 6.9 7.0 6.9 6.7 6.6 6.4
6.5 6.6 6.5 6.4 6.4 6.5 6.7 6.5 6.3 6.0 6.2 6.1 6.2 6.0 5.7 5.4 5.1 4.8 4.5 4.5 4.4 4.7 4.9 4.8 4.8 5.7 6.0 6.1 6.0 6.0 6.3 6.5 6.2 6.1 6.2 6.3 6.5 6.6 6.6 6.5 6.4 6.4 6.6 6.7
6.3 6.4 6.4 6.6 6.9 6.8 6.5 6.4 6.1 6.0 6.2 6.5 6.0 6.0 5.5 5.2 5.1 4.9 4.9 5.3 5.1 4.8 4.7 4.6 4.4 5.2 5.6 5.5 5.1 5.5 5.9 5.4 5.4 5.4 5.4 5.4 5.5 5.7 5.8 6.0 6.3 6.3 6.2 6.1
6.0 6.3 6.4 6.4 6.6 6.4 6.4 6.2 6.1 6.2 6.3 6.2 5.6 5.3 5.0 4.7 4.7 4.7 4.8 5.3 5.4 4.9 4.6 4.1 4.1 4.6 4.7 4.4 4.4 4.6 4.5 4.3 4.3 4.3 4.8 5.1 5.1 5.2 5.0 5.0 5.3 5.6 5.9 6.1
6.1 6.3 6.4 6.4 6.2 6.3 6.5 6.2 6.3 6.8 6.4 5.9 5.5 5.5 5.1 5.0 5.2 5.2 5.7 5.7 5.0 4.9 4.7 4.2 4.1 3.9 3.9 3.8 3.9 3.9 3.8 3.9 4.0 4.1 4.5 4.7 4.7 4.8 4.9 5.0 5.2 5.1 5.3 5.7
6.3 6.1 6.1 6.2 6.1 6.2 6.3 6.3 6.4 6.3 5.9 5.8 5.7 5.4 5.4 5.0 5.1 5.4 5.9 5.6 5.5 5.1 4.3 4.0 3.9 3.8 3.8 3.7 3.9 4.1 4.2 4.2 4.2 4.5 4.7 4.7 4.9 5.3 5.2 5.1 5.0 5.2 5.3 5.4
Wind_Speed
2 3 6 9 7 5 2 3 7 7 13 3 8 8 12 10 6 9 8 7 8 8 7 8 8 6 7 8 8 11 9 9 9 5 5 4 7 4 3 6 5 7 8 13
4 6 9 5 4 5 5 6 8 9 11 5 9 10 10 7 6 7 7 8 9 7 8 10 10 9 6 5 9 6 7 6 9 8 3 3 4 3 2 3 4 5 6 8
7 8 5 6 4 4 5 5 5 9 5 3 4 4 6 5 4 6 8 9 8 10 11 11 9 9 9 8 9 10 12 12 8 7 5 3 4 3 3 3 4 4 3 3
6 6 7 5 6 8 7 9 10 6 1 7 4 12 7 5 10 7 10 9 10 11 9 8 10 10 10 11 8 8 7 9 11 11 9 7 6 5 4 4 3 4 6 6
9 3 3 6 13 6 9 2 8 7 6 0 4 6 5 1 7 10 10 11 11 11 9 11 10 9 9 10 9 11 10 9 7 12 14 8 5 4 3 3 6 5 4 6
8 0 6 7 5 7 5 3 2 4 2 5 8 7 4 5 8 6 7 7 9 10 10 10 10 8 11 9 9 9 12 13 11 11 8 10 9 7 5 5 4 3 2 3
7 12 6 4 7 11 4 4 4 4 3 11 6 4 7 7 9 6 8 10 11 11 10 11 10 9 8 8 7 7 11 12 11 11 9 9 9 8 8 6 5 6 4 3
3 9 6 3 7 9 7 8 5 7 4 8 4 6 6 6 3 3 0 3 7 10 11 10 9 10 7 7 7 8 8 5 5 7 9 7 8 6 6 7 5 4 4 6
2 4 5 4 2 6 3 5 3 2 2 4 5 6 6 1 1 6 8 7 8 9 8 9 10 8 11 6 7 7 7 7 12 12 7 7 7 8 7 8 5 4 4 4
3 4 3 7 2 6 6 2 1 2 5 7 4 4 6 6 4 6 9 9 9 8 10 7 7 8 8 7 3 3 3 5 2 7 9 10 10 9 7 6 7 6 5 5
2 3 3 3 5 8 2 2 2 1 3 6 11 5 5 4 2 6 9 9 9 9 9 8 7 6 7 7 7 5 5 5 7 6 3 5 5 7 6 7 7 7 5 6
3 2 4 10 12 11 12 17 12 6 4 4 2 6 1 2 2 5 9 13 11 8 9 9 6 7 7 8 6 10 8 11 12 7 5 6 3 2 5 7 9 7 9 6
5 2 4 6 1 3 2 3 3 0 1 4 3 5 2 8 14 12 10 12 11 11 11 9 11 7 9 7 7 8 7 7 5 5 8 6 6 7 8 8 6 7 10 10
6 3 6 10 3 6 7 9 9 6 3 4 8 19 15 6 6 8 8 10 11 10 9 10 8 9 8 9 10 8 6 5 6 6 5 8 8 10 12 14 13 11 11 11
5 4 6 6 13 15 17 19 16 15 14 8 17 17 15 4 5 6 6 6 10 10 7 7 9 9 10 10 10 11 10 9 6 5 5 7 8 7 8 9 10 12 13 13
8 3 5 11 16 17 15 17 15 14 15 14 16 18 2 5 5 6 6 12 15 12 9 8 11 12 12 13 11 10 11 12 9 7 8 5 6 6 7 8 9 10 12 12
5 5 1 6 4 4 7 7 9 3 3 3 4 1 5 8 11 12 12 17 16 13 7 10 12 13 10 9 10 13 11 10 11 10 10 9 8 7 7 8 9 12 12 11
6 6 4 4 4 3 1 2 5 2 6 5 7 3 7 8 10 11 14 15 12 8 11 15 15 15 13 12 16 15 13 13 14 14 13 11 11 11 10 9 10 10 8 11
13 5 2 2 3 5 2 0 2 3 5 3 3 7 10 12 10 16 6 3 9 16 17 15 17 18 12 16 19 16 15 15 16 17 16 15 14 14 14 12 11 10 8 9
7 5 3 1 3 3 3 3 3 1 9 8 5 7 10 8 11 13 14 19 20 18 15 18 21 22 15 18 16 17 19 18 17 16 16 16 15 16 15 14 12 9 9 11
4 3 7 5 3 5 2 2 3 1 3 5 3 9 11 11 11 18 21 23 20 17 21 23 19 16 19 19 19 20 18 19 18 16 14 14 14 14 13 11 8 9 10 11
1 1 2 2 2 5 1 3 1 2 3 5 11 15 18 19 19 21 24 23 23 22 20 18 20 19 19 16 17 18 19 19 19 18 18 18 17 14 15 18 16 15 13 12
1 3 2 6 5 2 0 5 7 2 6 12 15 16 17 21 22 21 22 22 22 21 16 18 18 18 17 17 15 18 21 18 18 17 18 18 18 17 16 16 16 13 15 14
3 2 1 3 2 2 6 1 2 5 10 14 15 16 19 21 20 23 18 21 19 15 18 17 16 18 20 17 17 19 19 18 18 19 19 18 17 18 17 14 13 14 14 14
4 2 1 4 3 7 1 5 10 15 15 16 18 18 19 20 21 18 20 21 15 17 16 15 16 16 19 18 19 19 19 17 17 18 18 17 15 17 16 16 15 15 17 16
3 2 2 4 4 4 7 6 13 15 16 17 18 18 19 19 20 18 21 19 17 17 17 16 18 18 19 18 19 19 18 17 18 18 15 14 15 15 14 14 14 27 28 28
Wind_Direction
28 99 217 223 200 193 222 234 252 263 271 189 244 248 260 266 286 278 274 293 304 284 279 286 286 281 216 239 220 210 205 192 166 160 161 160 201 214 242 225 200 206 189 173
27 242 227 211 199 220 237 264 274 279 264 156 266 253 253 249 236 225 242 278 274 284 290 290 295 298 260 233 229 222 211 205 194 186 155 147 148 181 183 172 211 202 193 180
182 231 134 177 217 203 233 194 251 231 309 273 292 279 257 256 242 263 255 244 270 254 269 280 278 261 275 248 227 213 206 198 198 166 124 99 97 70 114 195 225 232 218 196
229 255 213 193 242 169 256 197 232 256 299 270 131 284 282 243 249 256 266 262 254 267 270 255 268 270 249 248 219 213 210 216 194 170 171 167 176 159 193 173 163 189 205 209
238 197 159 206 235 131 236 202 225 246 247 216 258 272 250 332 280 269 257 254 257 259 257 270 262 247 251 251 233 217 208 193 207 195 189 170 158 137 139 128 160 184 197 200
244 289 178 220 253 177 234 279 42 49 115 235 220 215 189 205 229 258 279 270 274 295 293 264 263 275 272 263 235 216 199 200 184 187 180 177 166 159 153 152 162 197 247 265
273 252 255 203 283 283 154 66 309 302 257 266 230 241 241 231 248 243 292 323 322 319 291 274 270 270 265 261 232 218 202 193 183 182 178 185 176 174 181 174 173 166 192 220
210 281 185 184 196 212 211 167 182 247 232 283 245 241 239 220 310 335 57 279 322 337 339 298 296 284 256 239 216 203 187 174 176 180 179 180 171 171 188 188 182 191 189 185
232 268 326 348 311 155 203 200 204 280 331 275 227 292 299 267 307 8 317 336 327 316 335 335 321 301 296 229 196 186 180 177 187 196 184 196 188 175 186 198 178 194 199 205
227 274 285 302 308 244 207 178 255 56 285 260 236 234 234 238 304 324 342 333 318 312 321 334 327 324 292 280 266 161 167 197 239 244 200 205 197 194 182 159 186 203 216 206
157 118 273 322 230 242 296 98 81 350 186 260 288 251 217 204 297 286 308 311 289 296 295 294 302 304 306 310 275 220 219 230 232 231 251 294 233 197 177 185 194 206 195 210
12 201 238 236 259 286 269 270 262 228 210 227 258 258 287 224 277 262 294 307 298 300 301 284 279 286 283 301 305 299 226 209 219 182 191 237 229 263 271 208 201 192 213 200
356 207 298 297 85 51 94 226 149 122 187 197 240 265 287 347 342 323 325 327 328 320 322 314 352 8 355 325 318 311 291 273 292 202 190 213 205 196 215 232 222 211 209 214
102 243 219 254 270 312 270 234 238 226 238 257 242 278 290 318 320 324 333 330 330 320 329 352 6 12 358 358 356 338 323 322 327 314 277 239 228 215 217 218 216 198 212 219
145 249 231 267 261 263 267 265 260 250 245 232 278 275 293 297 297 285 291 305 327 327 330 335 332 346 354 348 343 341 339 340 323 308 287 267 263 231 227 228 227 219 206 208
155 253 240 265 275 259 258 258 255 253 262 264 264 273 175 287 294 295 324 328 311 308 310 335 337 334 325 325 328 326 319 314 312 299 289 290 279 270 242 226 211 213 215 218
193 201 12 277 313 324 272 260 222 236 231 235 259 282 354 325 328 323 320 304 298 306 314 318 313 303 287 284 296 298 295 300 294 287 287 282 266 251 245 240 230 225 219 205
210 167 171 272 1 252 255 70 106 245 244 220 271 283 308 297 296 288 279 279 290 300 307 310 307 300 288 300 304 293 284 292 287 275 268 266 266 262 248 227 225 224 217 219
201 159 221 193 210 293 179 103 29 24 279 201 277 303 310 309 300 295 262 264 287 295 294 290 293 283 279 297 301 290 287 286 282 278 277 273 264 258 249 241 225 217 216 216
77 97 135 196 191 247 230 172 4 205 280 100 329 297 298 322 298 291 313 302 289 282 285 292 292 285 281 289 282 280 288 286 279 279 279 278 271 262 252 245 232 214 217 221
134 150 202 218 254 286 170 332 318 311 276 319 277 289 300 291 271 289 292 290 287 293 294 288 285 285 282 287 281 277 278 271 271 268 269 273 271 263 259 258 242 230 221 228
199 185 213 173 220 287 72 356 102 261 300 286 313 298 299 293 289 293 302 297 295 291 292 290 288 282 282 277 281 277 275 272 271 271 271 269 264 259 258 253 252 245 241 239
313 169 216 181 224 241 22 229 283 235 277 305 311 306 297 297 298 295 300 298 300 291 291 294 285 281 285 278 274 277 271 273 271 270 268 264 260 257 253 251 246 242 236 232
322 53 223 3 20 341 287 280 225 294 298 305 299 294 294 291 291 294 300 306 297 298 291 292 289 284 282 280 277 270 273 272 269 267 264 261 258 256 252 247 242 238 234 234
224 353 292 272 304 317 57 294 323 310 301 300 305 297 296 298 295 300 310 305 292 299 291 291 286 283 281 284 281 278 275 274 270 265 262 260 257 250 246 239 234 232 230 223
197 169 159 246 244 237 279 282 299 298 301 309 306 306 306 301 301 311 306 307 299 300 298 292 287 283 282 281 278 276 275 271 267 265 262 258 256 250 239 240 239 229 228 224